Overview Statistics Trail Chart Weather Telemetry Raw packets
 

This is the latest recevied weather packets stored in our database for station/object KN4AN. If no packets are shown the sender has not sent any weather packets the latest 10 day(s).

<< 81 82 83 84 85 86 87 >>
Time Temp. Humidity Pressure Rain* Wind** Luminosity Snow
1787961220 23.89° C 82% 1017.6 hPa 0 mm - 2 W/m² -
1787960920 23.89° C 81% 1017.5 hPa 0 mm - 4 W/m² -
1787960615 23.89° C 81% 1017.5 hPa 0 mm - 7 W/m² -
1787960314 24.44° C 80% 1017.5 hPa 0 mm - 9 W/m² -
1787960014 24.44° C 79% 1017.4 hPa 0 mm - 12 W/m² -
1787959708 24.44° C 79% 1017.7 hPa 0 mm - 16 W/m² -
1787959404 25° C 78% 1017.3 hPa 0 mm - 20 W/m² -
1787959098 25° C 78% 1017.3 hPa 0 mm - 22 W/m² -
1787958794 25.56° C 77% 1017.3 hPa 0 mm - 25 W/m² -
1787958489 25.56° C 77% 1017.3 hPa 0 mm - 24 W/m² -
1787958185 25.56° C 77% 1017 hPa 0 mm - 27 W/m² -
1787957884 26.11° C 75% 1016.9 hPa 0 mm - 33 W/m² -
1787957578 26.11° C 74% 1017.1 hPa 0 mm - 33 W/m² -
1787957274 26.67° C 73% 1017.1 hPa 0 mm - 32 W/m² -
1787956974 27.22° C 72% 1017 hPa 0 mm - 32 W/m² -
1787956673 27.78° C 68% 1017 hPa 0 mm - 31 W/m² -
1787956368 27.78° C 63% 1016.9 hPa 0 mm - 31 W/m² -
1787956064 28.33° C 63% 1017 hPa 0 mm - 33 W/m² -
1787955759 28.89° C 60% 1017.1 hPa 0 mm - 38 W/m² -
1787955455 29.44° C 59% 1017.1 hPa 0 mm - 44 W/m² -
1787955153 30° C 54% 1016.9 hPa 0 mm - 55 W/m² -
1787954850 30.56° C 50% 1016.8 hPa 0 mm - 74 W/m² -
1787954545 31.11° C 53% 1016.7 hPa 0 mm - 99 W/m² -
1787954245 31.67° C 46% 1016.7 hPa 0 mm - 102 W/m² -
1787953945 31.67° C 47% 1016.7 hPa 0 mm - 143 W/m² -

* Rain latest hour (hover to see other rain measurements)
** Current wind speed in m/s (hover to see current wind gust speed)